Time,TemperatureF,DewpointF,PressureIn,WindDirection,WindDirectionDegrees,WindSpeedMPH,WindSpeedGustMPH,Humidity,HourlyPrecipIn,Conditions,Clouds,dailyrainin,SoftwareType,DateUTC
2013-03-01 00:01:00,32.9,23.8,29.72,NNW,338,12.0,12.0,69,0.00,,,0.00,Wunderground v.1.15,2013-03-01 05:01:00,
2013-03-01 00:05:00,32.9,23.5,29.72,NW,321,12.0,12.0,68,0.00,,,0.00,Wunderground v.1.15,2013-03-01 05:05:00,
2013-03-01 00:15:00,32.8,23.7,29.71,NNW,336,10.0,16.0,69,0.00,,,0.00,Wunderground v.1.15,2013-03-01 05:15:00,
2013-03-01 00:20:00,32.6,23.6,29.70,NW,312,12.0,12.0,69,0.00,,,0.00,Wunderground v.1.15,2013-03-01 05:20:00,
2013-03-01 00:25:00,32.6,23.6,29.70,NNW,329,10.0,12.0,69,0.00,,,0.00,Wunderground v.1.15,2013-03-01 05:25:00,
2013-03-01 00:30:00,32.6,23.6,29.70,NW,311,10.0,10.0,69,0.00,,,0.00,Wunderground v.1.15,2013-03-01 05:30:00,
2013-03-01 00:40:00,32.6,23.6,29.70,NNW,330,11.0,11.0,69,0.00,,,0.00,Wunderground v.1.15,2013-03-01 05:40:00,
2013-03-01 00:45:00,32.6,23.9,29.70,North,10,11.0,11.0,70,0.00,,,0.00,Wunderground v.1.15,2013-03-01 05:45:00,
2013-03-01 00:55:00,32.4,23.7,29.69,North,349,11.0,12.0,70,0.00,,,0.00,Wunderground v.1.15,2013-03-01 05:55:00,
2013-03-01 01:00:00,32.4,23.7,29.70,North,353,7.0,7.0,70,0.00,,,0.00,Wunderground v.1.15,2013-03-01 06:00:00,
2013-03-01 01:05:00,32.4,23.7,29.70,North,10,8.0,9.0,70,0.00,,,0.00,Wunderground v.1.15,2013-03-01 06:05:00,
2013-03-01 01:10:00,32.4,24.0,29.70,North,10,10.0,10.0,71,0.00,,,0.00,Wunderground v.1.15,2013-03-01 06:10:00,
2013-03-01 01:15:00,32.4,24.0,29.70,North,10,10.0,10.0,71,0.00,,,0.00,Wunderground v.1.15,2013-03-01 06:15:00,
2013-03-01 01:20:00,32.3,23.6,29.70,NNW,347,9.0,12.0,70,0.00,,,0.00,Wunderground v.1.15,2013-03-01 06:20:00,
2013-03-01 01:30:00,32.2,23.8,29.70,NNW,329,9.0,13.0,71,0.00,,,0.00,Wunderground v.1.15,2013-03-01 06:30:00,
2013-03-01 01:35:00,32.2,23.8,29.71,North,352,9.0,13.0,71,0.00,,,0.00,Wunderground v.1.15,2013-03-01 06:35:00,
2013-03-01 01:40:00,32.2,23.8,29.71,North,360,10.0,15.0,71,0.00,,,0.00,Wunderground v.1.15,2013-03-01 06:40:00,
2013-03-01 01:46:00,32.3,23.9,29.71,NW,320,10.0,15.0,71,0.00,,,0.00,Wunderground v.1.15,2013-03-01 06:46:00,
2013-03-01 01:55:00,32.2,23.8,29.70,NNW,347,8.0,11.0,71,0.00,,,0.00,Wunderground v.1.15,2013-03-01 06:55:00,
2013-03-01 02:00:00,32.2,24.2,29.70,NW,307,10.0,10.0,72,0.00,,,0.00,Wunderground v.1.15,2013-03-01 07:00:00,
2013-03-01 02:05:00,32.2,24.2,29.70,NW,321,12.0,12.0,72,0.00,,,0.00,Wunderground v.1.15,2013-03-01 07:05:00,
2013-03-01 02:10:00,32.2,24.2,29.70,North,10,12.0,18.0,72,0.00,,,0.00,Wunderground v.1.15,2013-03-01 07:10:00,
2013-03-01 02:20:00,32.1,24.1,29.70,NW,316,11.0,11.0,72,0.00,,,0.00,Wunderground v.1.15,2013-03-01 07:20:00,
2013-03-01 02:25:00,32.1,24.1,29.70,North,360,9.0,11.0,72,0.00,,,0.00,Wunderground v.1.15,2013-03-01 07:25:00,
2013-03-01 02:30:00,32.1,24.1,29.70,North,360,9.0,9.0,72,0.00,,,0.00,Wunderground v.1.15,2013-03-01 07:30:00,
2013-03-01 02:35:00,32.1,24.1,29.70,NNW,341,11.0,12.0,72,0.00,,,0.00,Wunderground v.1.15,2013-03-01 07:35:00,
2013-03-01 02:45:00,32.1,24.4,29.70,NW,318,10.0,15.0,73,0.00,,,0.00,Wunderground v.1.15,2013-03-01 07:45:00,
2013-03-01 02:55:00,32.1,24.4,29.70,NW,316,11.0,12.0,73,0.00,,,0.00,Wunderground v.1.15,2013-03-01 07:55:00,
2013-03-01 03:00:00,32.2,24.5,29.70,NNE,27,8.0,8.0,73,0.00,,,0.00,Wunderground v.1.15,2013-03-01 08:00:00,
2013-03-01 03:05:00,32.1,24.4,29.70,NW,325,5.0,8.0,73,0.00,,,0.00,Wunderground v.1.15,2013-03-01 08:05:00,
2013-03-01 03:15:00,32.1,24.4,29.70,North,5,3.0,10.0,73,0.00,,,0.00,Wunderground v.1.15,2013-03-01 08:15:00,
2013-03-01 03:25:00,32.2,24.5,29.70,NNW,340,5.0,5.0,73,0.00,,,0.00,Wunderground v.1.15,2013-03-01 08:25:00,
2013-03-01 03:30:00,32.1,24.4,29.71,North,10,5.0,7.0,73,0.00,,,0.00,Wunderground v.1.15,2013-03-01 08:30:00,
2013-03-01 03:40:00,32.2,24.5,29.71,WNW,299,6.0,10.0,73,0.00,,,0.00,Wunderground v.1.15,2013-03-01 08:40:00,
2013-03-01 03:45:00,32.2,24.5,29.71,NW,318,7.0,10.0,73,0.00,,,0.00,Wunderground v.1.15,2013-03-01 08:45:00,
2013-03-01 03:55:00,32.2,24.5,29.71,WNW,298,9.0,10.0,73,0.00,,,0.00,Wunderground v.1.15,2013-03-01 08:55:00,
2013-03-01 04:00:00,32.3,24.6,29.71,NW,324,8.0,8.0,73,0.00,,,0.00,Wunderground v.1.15,2013-03-01 09:00:00,
2013-03-01 04:10:00,32.3,24.3,29.72,WNW,299,8.0,13.0,72,0.00,,,0.00,Wunderground v.1.15,2013-03-01 09:10:00,
2013-03-01 04:16:00,32.3,24.3,29.72,NW,310,7.0,13.0,72,0.00,,,0.00,Wunderground v.1.15,2013-03-01 09:16:00,
2013-03-01 04:25:00,32.4,24.7,29.72,WNW,303,5.0,6.0,73,0.00,,,0.00,Wunderground v.1.15,2013-03-01 09:25:00,
2013-03-01 04:30:00,32.3,24.6,29.73,NW,313,6.0,6.0,73,0.00,,,0.00,Wunderground v.1.15,2013-03-01 09:30:00,
2013-03-01 04:40:00,32.4,24.7,29.73,NW,322,6.0,6.0,73,0.00,,,0.00,Wunderground v.1.15,2013-03-01 09:40:00,
2013-03-01 04:45:00,32.4,24.7,29.73,North,354,5.0,6.0,73,0.00,,,0.00,Wunderground v.1.15,2013-03-01 09:45:00,
2013-03-01 04:50:00,32.4,24.7,29.72,WNW,299,5.0,5.0,73,0.00,,,0.00,Wunderground v.1.15,2013-03-01 09:50:00,
2013-03-01 04:55:00,32.5,24.8,29.72,NNW,338,4.0,5.0,73,0.00,,,0.00,Wunderground v.1.15,2013-03-01 09:55:00,
2013-03-01 05:01:00,32.4,24.7,29.72,NNE,15,4.0,4.0,73,0.00,,,0.00,Wunderground v.1.15,2013-03-01 10:01:00,
2013-03-01 05:10:00,32.4,24.7,29.72,NW,325,5.0,7.0,73,0.00,,,0.00,Wunderground v.1.15,2013-03-01 10:10:00,
2013-03-01 05:15:00,32.4,24.7,29.72,NNW,334,5.0,7.0,73,0.00,,,0.00,Wunderground v.1.15,2013-03-01 10:15:00,
2013-03-01 05:25:00,32.4,24.7,29.72,NW,319,6.0,6.0,73,0.00,,,0.00,Wunderground v.1.15,2013-03-01 10:25:00,
2013-03-01 05:30:00,32.4,25.0,29.73,NW,314,5.0,6.0,74,0.00,,,0.00,Wunderground v.1.15,2013-03-01 10:30:00,
2013-03-01 05:35:00,32.4,25.0,29.72,WNW,297,5.0,7.0,74,0.00,,,0.00,Wunderground v.1.15,2013-03-01 10:35:00,
2013-03-01 05:40:00,32.3,24.9,29.72,NNW,331,4.0,4.0,74,0.00,,,0.00,Wunderground v.1.15,2013-03-01 10:40:00,
2013-03-01 05:45:00,32.3,24.9,29.72,NW,326,4.0,4.0,74,0.00,,,0.00,Wunderground v.1.15,2013-03-01 10:45:00,
2013-03-01 05:55:00,32.3,24.6,29.72,NNW,329,4.0,4.0,73,0.00,,,0.00,Wunderground v.1.15,2013-03-01 10:55:00,
2013-03-01 06:00:00,32.3,24.9,29.72,NW,307,4.0,4.0,74,0.00,,,0.00,Wunderground v.1.15,2013-03-01 11:00:00,
2013-03-01 06:05:00,32.2,24.8,29.72,NW,317,2.0,4.0,74,0.00,,,0.00,Wunderground v.1.15,2013-03-01 11:05:00,
2013-03-01 06:10:00,32.1,24.7,29.71,NW,313,2.0,6.0,74,0.00,,,0.00,Wunderground v.1.15,2013-03-01 11:10:00,
2013-03-01 06:15:00,32.0,24.6,29.72,North,5,3.0,6.0,74,0.00,,,0.00,Wunderground v.1.15,2013-03-01 11:15:00,
2013-03-01 06:25:00,31.9,24.6,29.72,NNW,341,3.0,6.0,74,0.00,,,0.00,Wunderground v.1.15,2013-03-01 11:25:00,
2013-03-01 06:30:00,31.9,24.6,29.72,North,350,4.0,4.0,74,0.00,,,0.00,Wunderground v.1.15,2013-03-01 11:30:00,
2013-03-01 06:35:00,31.8,24.8,29.72,North,351,4.0,5.0,75,0.00,,,0.00,Wunderground v.1.15,2013-03-01 11:35:00,
2013-03-01 06:45:00,31.7,24.7,29.72,NNW,340,6.0,6.0,75,0.00,,,0.00,Wunderground v.1.15,2013-03-01 11:45:00,
2013-03-01 06:55:00,31.9,24.9,29.71,NNW,334,3.0,4.0,75,0.00,,,0.00,Wunderground v.1.15,2013-03-01 11:55:00,
2013-03-01 07:00:00,31.9,24.6,29.71,NNW,333,3.0,3.0,74,0.00,,,0.00,Wunderground v.1.15,2013-03-01 12:00:00,
2013-03-01 07:10:00,32.0,24.6,29.71,North,351,3.0,4.0,74,0.00,,,0.00,Wunderground v.1.15,2013-03-01 12:10:00,
2013-03-01 07:15:00,31.9,24.6,29.72,North,356,5.0,5.0,74,0.00,,,0.00,Wunderground v.1.15,2013-03-01 12:15:00,
2013-03-01 07:25:00,32.1,24.7,29.73,NW,325,5.0,9.0,74,0.00,,,0.00,Wunderground v.1.15,2013-03-01 12:25:00,
2013-03-01 07:30:00,32.2,24.8,29.73,NNW,328,4.0,4.0,74,0.00,,,0.00,Wunderground v.1.15,2013-03-01 12:30:00,
2013-03-01 07:35:00,32.1,24.7,29.73,NNW,328,4.0,4.0,74,0.00,,,0.00,Wunderground v.1.15,2013-03-01 12:35:00,
2013-03-01 07:50:00,32.1,24.7,29.74,North,10,1.0,1.0,74,0.00,,,0.00,Wunderground v.1.15,2013-03-01 12:50:00,
2013-03-01 07:55:00,32.2,25.2,29.74,NW,313,1.0,1.0,75,0.00,,,0.00,Wunderground v.1.15,2013-03-01 12:55:00,
2013-03-01 08:05:00,32.9,25.5,29.74,NW,320,1.0,1.0,74,0.00,,,0.00,Wunderground v.1.15,2013-03-01 13:05:00,
2013-03-01 08:16:00,33.7,26.0,29.74,NW,322,0.0,1.0,73,0.00,,,0.00,Wunderground v.1.15,2013-03-01 13:16:00,
2013-03-01 08:25:00,33.9,25.8,29.74,NNW,337,2.0,4.0,72,0.00,,,0.00,Wunderground v.1.15,2013-03-01 13:25:00,
2013-03-01 08:31:00,34.1,26.0,29.74,North,354,2.0,2.0,72,0.00,,,0.00,Wunderground v.1.15,2013-03-01 13:31:00,
2013-03-01 08:40:00,34.7,26.3,29.74,North,360,3.0,3.0,71,0.00,,,0.00,Wunderground v.1.15,2013-03-01 13:40:00,
2013-03-01 08:46:00,35.3,26.5,29.74,NNE,15,3.0,4.0,70,0.00,,,0.00,Wunderground v.1.15,2013-03-01 13:46:00,
2013-03-01 08:55:00,35.8,26.6,29.74,NNW,343,6.0,6.0,69,0.00,,,0.00,Wunderground v.1.15,2013-03-01 13:55:00,
2013-03-01 09:01:00,36.2,26.3,29.74,North,10,8.0,8.0,67,0.00,,,0.00,Wunderground v.1.15,2013-03-01 14:01:00,
2013-03-01 09:10:00,36.5,26.6,29.74,North,352,7.0,12.0,67,0.00,,,0.00,Wunderground v.1.15,2013-03-01 14:10:00,
2013-03-01 09:16:00,37.1,27.5,29.74,NW,316,6.0,6.0,68,0.00,,,0.00,Wunderground v.1.15,2013-03-01 14:16:00,
2013-03-01 09:25:00,36.8,26.9,29.74,NNW,334,5.0,6.0,67,0.00,,,0.00,Wunderground v.1.15,2013-03-01 14:25:00,
2013-03-01 09:35:00,36.5,26.6,29.74,NW,323,6.0,9.0,67,0.00,,,0.00,Wunderground v.1.15,2013-03-01 14:35:00,
2013-03-01 09:40:00,36.2,26.6,29.74,NW,307,5.0,13.0,68,0.00,,,0.00,Wunderground v.1.15,2013-03-01 14:40:00,
2013-03-01 09:50:00,36.6,27.0,29.74,WNW,299,6.0,6.0,68,0.00,,,0.00,Wunderground v.1.15,2013-03-01 14:50:00,
2013-03-01 09:55:00,36.8,27.6,29.74,NW,314,5.0,6.0,69,0.00,,,0.00,Wunderground v.1.15,2013-03-01 14:55:00,
2013-03-01 10:05:00,37.1,27.9,29.74,NNW,332,6.0,6.0,69,0.00,,,0.00,Wunderground v.1.15,2013-03-01 15:05:00,
2013-03-01 10:15:00,37.0,27.1,29.74,North,360,6.0,7.0,67,0.00,,,0.00,Wunderground v.1.15,2013-03-01 15:15:00,
2013-03-01 10:20:00,37.0,27.1,29.74,North,10,5.0,5.0,67,0.00,,,0.00,Wunderground v.1.15,2013-03-01 15:20:00,
2013-03-01 10:35:00,37.3,27.3,29.75,NW,316,6.0,6.0,67,0.00,,,0.00,Wunderground v.1.15,2013-03-01 15:35:00,
2013-03-01 10:40:00,37.1,27.5,29.75,NW,314,6.0,6.0,68,0.00,,,0.00,Wunderground v.1.15,2013-03-01 15:40:00,
2013-03-01 10:45:00,37.4,27.1,29.75,NW,312,5.0,9.0,66,0.00,,,0.00,Wunderground v.1.15,2013-03-01 15:45:00,
2013-03-01 10:55:00,37.0,27.4,29.75,NW,318,6.0,10.0,68,0.00,,,0.00,Wunderground v.1.15,2013-03-01 15:55:00,
2013-03-01 11:01:00,37.0,28.1,29.75,NW,305,7.0,7.0,70,0.00,,,0.00,Wunderground v.1.15,2013-03-01 16:01:00,
2013-03-01 11:10:00,36.8,27.2,29.75,NW,316,7.0,7.0,68,0.00,,,0.00,Wunderground v.1.15,2013-03-01 16:10:00,
2013-03-01 11:20:00,36.9,27.7,29.75,WNW,291,6.0,6.0,69,0.00,,,0.00,Wunderground v.1.15,2013-03-01 16:20:00,
2013-03-01 11:25:00,36.8,27.6,29.75,NW,321,7.0,7.0,69,0.00,,,0.00,Wunderground v.1.15,2013-03-01 16:25:00,
2013-03-01 11:30:00,36.4,27.2,29.75,NW,326,8.0,8.0,69,0.00,,,0.00,Wunderground v.1.15,2013-03-01 16:30:00,
2013-03-01 11:35:00,36.4,27.5,29.75,WNW,298,7.0,8.0,70,0.00,,,0.00,Wunderground v.1.15,2013-03-01 16:35:00,
2013-03-01 11:40:00,36.5,28.0,29.75,NW,323,6.0,12.0,71,0.00,,,0.00,Wunderground v.1.15,2013-03-01 16:40:00,
2013-03-01 11:45:00,36.6,27.7,29.75,NNW,328,7.0,12.0,70,0.00,,,0.00,Wunderground v.1.15,2013-03-01 16:45:00,
2013-03-01 11:50:00,36.5,28.0,29.75,NNW,329,8.0,8.0,71,0.00,,,0.00,Wunderground v.1.15,2013-03-01 16:50:00,
2013-03-01 12:01:00,36.5,28.0,29.75,West,280,5.0,5.0,71,0.00,,,0.00,Wunderground v.1.15,2013-03-01 17:01:00,
2013-03-01 12:10:00,36.7,28.2,29.75,NW,308,6.0,10.0,71,0.00,,,0.00,Wunderground v.1.15,2013-03-01 17:10:00,
2013-03-01 12:20:00,36.7,27.8,29.75,NNW,327,8.0,9.0,70,0.00,,,0.00,Wunderground v.1.15,2013-03-01 17:20:00,
2013-03-01 12:25:00,36.6,27.7,29.75,NNW,331,8.0,9.0,70,0.00,,,0.00,Wunderground v.1.15,2013-03-01 17:25:00,
2013-03-01 12:31:00,36.9,28.0,29.75,NW,324,8.0,10.0,70,0.00,,,0.00,Wunderground v.1.15,2013-03-01 17:31:00,
2013-03-01 12:40:00,37.1,28.6,29.74,NW,314,6.0,6.0,71,0.00,,,0.00,Wunderground v.1.15,2013-03-01 17:40:00,
2013-03-01 12:46:00,37.1,28.2,29.74,West,267,6.0,8.0,70,0.00,,,0.00,Wunderground v.1.15,2013-03-01 17:46:00,
2013-03-01 12:55:00,38.0,28.4,29.73,North,351,8.0,10.0,68,0.00,,,0.00,Wunderground v.1.15,2013-03-01 17:55:00,
2013-03-01 13:05:00,38.1,28.5,29.73,WNW,293,7.0,7.0,68,0.00,,,0.00,Wunderground v.1.15,2013-03-01 18:05:00,
2013-03-01 13:10:00,38.1,28.1,29.73,NNW,332,8.0,8.0,67,0.00,,,0.00,Wunderground v.1.15,2013-03-01 18:10:00,
2013-03-01 13:20:00,38.0,28.0,29.72,NNW,343,7.0,8.0,67,0.00,,,0.00,Wunderground v.1.15,2013-03-01 18:20:00,
2013-03-01 13:25:00,38.0,28.0,29.72,West,267,8.0,8.0,67,0.00,,,0.00,Wunderground v.1.15,2013-03-01 18:25:00,
2013-03-01 13:35:00,38.0,27.6,29.72,NW,305,7.0,7.0,66,0.00,,,0.00,Wunderground v.1.15,2013-03-01 18:35:00,
2013-03-01 13:40:00,38.3,28.3,29.71,WNW,301,7.0,7.0,67,0.00,,,0.00,Wunderground v.1.15,2013-03-01 18:40:00,
2013-03-01 13:50:00,38.0,27.6,29.71,NNW,344,7.0,11.0,66,0.00,,,0.00,Wunderground v.1.15,2013-03-01 18:50:00,
2013-03-01 13:55:00,37.6,27.6,29.71,North,354,9.0,11.0,67,0.00,,,0.00,Wunderground v.1.15,2013-03-01 18:55:00,
2013-03-01 14:05:00,37.4,27.8,29.71,NW,311,4.0,6.0,68,0.00,,,0.00,Wunderground v.1.15,2013-03-01 19:05:00,
2013-03-01 14:10:00,37.3,27.7,29.71,NW,317,5.0,5.0,68,0.00,,,0.00,Wunderground v.1.15,2013-03-01 19:10:00,
2013-03-01 14:20:00,37.3,27.7,29.71,NNW,334,5.0,5.0,68,0.00,,,0.00,Wunderground v.1.15,2013-03-01 19:20:00,
2013-03-01 14:25:00,37.3,28.1,29.71,NNW,338,4.0,8.0,69,0.00,,,0.00,Wunderground v.1.15,2013-03-01 19:25:00,
2013-03-01 14:35:00,37.1,27.5,29.71,WNW,299,8.0,9.0,68,0.00,,,0.00,Wunderground v.1.15,2013-03-01 19:35:00,
2013-03-01 14:40:00,37.0,27.4,29.71,NW,310,9.0,10.0,68,0.00,,,0.00,Wunderground v.1.15,2013-03-01 19:40:00,
2013-03-01 14:45:00,36.9,27.7,29.71,NW,314,8.0,10.0,69,0.00,,,0.00,Wunderground v.1.15,2013-03-01 19:45:00,
2013-03-01 14:50:00,36.8,27.2,29.71,NNW,328,7.0,10.0,68,0.00,,,0.00,Wunderground v.1.15,2013-03-01 19:50:00,
2013-03-01 15:00:00,36.9,27.0,29.71,WNW,299,6.0,9.0,67,0.00,,,0.00,Wunderground v.1.15,2013-03-01 20:00:00,
2013-03-01 15:05:00,37.1,27.2,29.72,WNW,283,6.0,9.0,67,0.00,,,0.00,Wunderground v.1.15,2013-03-01 20:05:00,
2013-03-01 15:15:00,37.1,27.5,29.72,NNW,342,6.0,6.0,68,0.00,,,0.00,Wunderground v.1.15,2013-03-01 20:15:00,
2013-03-01 15:25:00,37.0,27.4,29.71,NW,307,7.0,12.0,68,0.00,,,0.00,Wunderground v.1.15,2013-03-01 20:25:00,
2013-03-01 15:30:00,37.0,27.8,29.71,WNW,303,7.0,7.0,69,0.00,,,0.00,Wunderground v.1.15,2013-03-01 20:30:00,
2013-03-01 15:40:00,37.0,27.4,29.71,NW,304,6.0,6.0,68,0.00,,,0.00,Wunderground v.1.15,2013-03-01 20:40:00,
2013-03-01 15:45:00,37.0,28.1,29.71,WNW,300,7.0,7.0,70,0.00,,,0.00,Wunderground v.1.15,2013-03-01 20:45:00,
2013-03-01 15:50:00,36.8,27.2,29.72,WNW,289,7.0,12.0,68,0.00,,,0.00,Wunderground v.1.15,2013-03-01 20:50:00,
2013-03-01 16:00:00,36.5,27.3,29.71,NW,313,7.0,7.0,69,0.00,,,0.00,Wunderground v.1.15,2013-03-01 21:00:00,
2013-03-01 16:10:00,36.4,27.5,29.72,NW,304,6.0,10.0,70,0.00,,,0.00,Wunderground v.1.15,2013-03-01 21:10:00,
2013-03-01 16:15:00,36.4,27.5,29.72,NW,320,6.0,10.0,70,0.00,,,0.00,Wunderground v.1.15,2013-03-01 21:15:00,
2013-03-01 16:25:00,36.4,27.5,29.72,WNW,286,5.0,5.0,70,0.00,,,0.00,Wunderground v.1.15,2013-03-01 21:25:00,
2013-03-01 16:30:00,36.5,27.6,29.71,NW,309,5.0,5.0,70,0.00,,,0.00,Wunderground v.1.15,2013-03-01 21:30:00,
2013-03-01 16:35:00,36.6,27.4,29.72,NNW,334,6.0,10.0,69,0.00,,,0.00,Wunderground v.1.15,2013-03-01 21:35:00,
2013-03-01 16:46:00,36.5,27.3,29.72,NW,305,8.0,8.0,69,0.00,,,0.00,Wunderground v.1.15,2013-03-01 21:46:00,
2013-03-01 16:55:00,36.2,27.4,29.71,NW,308,8.0,8.0,70,0.00,,,0.00,Wunderground v.1.15,2013-03-01 21:55:00,
2013-03-01 17:00:00,36.1,27.6,29.72,NNW,336,9.0,11.0,71,0.00,,,0.00,Wunderground v.1.15,2013-03-01 22:00:00,
2013-03-01 17:05:00,35.9,27.7,29.72,NW,307,10.0,15.0,72,0.00,,,0.00,Wunderground v.1.15,2013-03-01 22:05:00,
2013-03-01 17:15:00,35.7,27.6,29.72,WNW,300,8.0,13.0,72,0.00,,,0.00,Wunderground v.1.15,2013-03-01 22:15:00,
2013-03-01 17:25:00,35.7,27.6,29.72,NW,319,5.0,7.0,72,0.00,,,0.00,Wunderground v.1.15,2013-03-01 22:25:00,
2013-03-01 17:30:00,35.8,27.7,29.72,NW,314,6.0,6.0,72,0.00,,,0.00,Wunderground v.1.15,2013-03-01 22:30:00,
2013-03-01 17:35:00,35.8,27.7,29.72,NNW,339,7.0,7.0,72,0.00,,,0.00,Wunderground v.1.15,2013-03-01 22:35:00,
2013-03-01 17:45:00,35.9,27.7,29.72,NW,311,6.0,10.0,72,0.00,,,0.00,Wunderground v.1.15,2013-03-01 22:45:00,
2013-03-01 17:55:00,35.9,27.7,29.73,NW,325,6.0,8.0,72,0.00,,,0.00,Wunderground v.1.15,2013-03-01 22:55:00,
2013-03-01 18:00:00,35.8,27.3,29.72,NNW,331,5.0,5.0,71,0.00,,,0.00,Wunderground v.1.15,2013-03-01 23:00:00,
2013-03-01 18:10:00,35.7,27.6,29.72,NW,325,4.0,4.0,72,0.00,,,0.00,Wunderground v.1.15,2013-03-01 23:10:00,
2013-03-01 18:15:00,35.6,27.5,29.72,NW,305,4.0,7.0,72,0.00,,,0.00,Wunderground v.1.15,2013-03-01 23:15:00,
2013-03-01 18:20:00,35.6,27.5,29.72,NW,326,4.0,4.0,72,0.00,,,0.00,Wunderground v.1.15,2013-03-01 23:20:00,
2013-03-01 18:25:00,35.5,27.4,29.72,NW,309,4.0,4.0,72,0.00,,,0.00,Wunderground v.1.15,2013-03-01 23:25:00,
2013-03-01 18:35:00,35.3,27.2,29.73,WNW,303,4.0,5.0,72,0.00,,,0.00,Wunderground v.1.15,2013-03-01 23:35:00,
2013-03-01 18:45:00,35.2,27.4,29.73,WNW,294,4.0,5.0,73,0.00,,,0.00,Wunderground v.1.15,2013-03-01 23:45:00,
2013-03-01 18:55:00,35.2,27.4,29.73,NW,310,6.0,6.0,73,0.00,,,0.00,Wunderground v.1.15,2013-03-01 23:55:00,
2013-03-01 19:01:00,35.2,27.4,29.73,WNW,286,5.0,5.0,73,0.00,,,0.00,Wunderground v.1.15,2013-03-02 00:01:00,
2013-03-01 19:10:00,35.2,27.4,29.73,WNW,298,4.0,4.0,73,0.00,,,0.00,Wunderground v.1.15,2013-03-02 00:10:00,
2013-03-01 19:15:00,35.2,27.4,29.73,WNW,285,4.0,4.0,73,0.00,,,0.00,Wunderground v.1.15,2013-03-02 00:15:00,
2013-03-01 19:25:00,35.3,27.2,29.74,NW,305,5.0,8.0,72,0.00,,,0.00,Wunderground v.1.15,2013-03-02 00:25:00,
2013-03-01 19:31:00,35.3,27.5,29.74,West,267,6.0,6.0,73,0.00,,,0.00,Wunderground v.1.15,2013-03-02 00:31:00,
2013-03-01 19:40:00,35.3,27.5,29.73,WNW,296,5.0,5.0,73,0.00,,,0.00,Wunderground v.1.15,2013-03-02 00:40:00,
2013-03-01 19:45:00,35.2,27.4,29.74,WNW,290,4.0,5.0,73,0.00,,,0.00,Wunderground v.1.15,2013-03-02 00:45:00,
2013-03-01 19:50:00,35.2,27.4,29.74,WNW,288,4.0,4.0,73,0.00,,,0.00,Wunderground v.1.15,2013-03-02 00:50:00,
2013-03-01 20:00:00,35.1,27.6,29.73,WNW,298,5.0,5.0,74,0.00,,,0.00,Wunderground v.1.15,2013-03-02 01:00:00,
2013-03-01 20:05:00,35.1,27.3,29.73,WNW,290,5.0,5.0,73,0.00,,,0.00,Wunderground v.1.15,2013-03-02 01:05:00,
2013-03-01 20:10:00,35.1,27.3,29.73,WNW,297,4.0,5.0,73,0.00,,,0.00,Wunderground v.1.15,2013-03-02 01:10:00,
2013-03-01 20:15:00,35.0,27.5,29.73,WNW,287,4.0,5.0,74,0.00,,,0.00,Wunderground v.1.15,2013-03-02 01:15:00,
2013-03-01 20:25:00,34.9,27.5,29.74,West,277,5.0,5.0,74,0.00,,,0.00,Wunderground v.1.15,2013-03-02 01:25:00,
2013-03-01 20:30:00,34.9,27.8,29.74,WNW,289,5.0,6.0,75,0.00,,,0.00,Wunderground v.1.15,2013-03-02 01:30:00,
2013-03-01 20:35:00,34.8,27.7,29.74,WNW,302,6.0,6.0,75,0.00,,,0.00,Wunderground v.1.15,2013-03-02 01:35:00,
2013-03-01 20:40:00,34.8,27.7,29.74,WNW,286,6.0,6.0,75,0.00,,,0.00,Wunderground v.1.15,2013-03-02 01:40:00,
2013-03-01 20:46:00,34.8,27.7,29.75,NW,304,5.0,6.0,75,0.00,,,0.00,Wunderground v.1.15,2013-03-02 01:46:00,
2013-03-01 20:55:00,34.8,27.7,29.75,WNW,298,6.0,6.0,75,0.00,,,0.00,Wunderground v.1.15,2013-03-02 01:55:00,
2013-03-01 21:00:00,34.7,27.6,29.75,WNW,282,5.0,6.0,75,0.00,,,0.00,Wunderground v.1.15,2013-03-02 02:00:00,
2013-03-01 21:05:00,34.7,27.6,29.74,NW,313,5.0,6.0,75,0.00,,,0.00,Wunderground v.1.15,2013-03-02 02:05:00,
2013-03-01 21:15:00,34.6,27.5,29.74,WNW,297,7.0,12.0,75,0.00,,,0.00,Wunderground v.1.15,2013-03-02 02:15:00,
2013-03-01 21:25:00,34.5,27.7,29.74,WNW,303,8.0,9.0,76,0.00,,,0.00,Wunderground v.1.15,2013-03-02 02:25:00,
2013-03-01 21:30:00,34.5,27.7,29.74,NW,317,7.0,7.0,76,0.00,,,0.00,Wunderground v.1.15,2013-03-02 02:30:00,
2013-03-01 21:35:00,34.5,27.7,29.74,WNW,303,6.0,7.0,76,0.00,,,0.00,Wunderground v.1.15,2013-03-02 02:35:00,
2013-03-01 21:45:00,34.4,27.6,29.75,West,280,5.0,5.0,76,0.00,,,0.00,Wunderground v.1.15,2013-03-02 02:45:00,
2013-03-01 21:55:00,34.4,27.9,29.75,WNW,284,4.0,9.0,77,0.00,,,0.00,Wunderground v.1.15,2013-03-02 02:55:00,
2013-03-01 22:00:00,34.4,27.6,29.75,WNW,303,5.0,5.0,76,0.00,,,0.00,Wunderground v.1.15,2013-03-02 03:00:00,
2013-03-01 22:05:00,34.4,27.9,29.75,West,273,5.0,5.0,77,0.00,,,0.00,Wunderground v.1.15,2013-03-02 03:05:00,
2013-03-01 22:15:00,34.4,27.9,29.74,NW,305,6.0,6.0,77,0.00,,,0.00,Wunderground v.1.15,2013-03-02 03:15:00,
2013-03-01 22:25:00,34.2,27.7,29.74,WNW,284,8.0,8.0,77,0.00,,,0.00,Wunderground v.1.15,2013-03-02 03:25:00,
2013-03-01 22:35:00,34.0,27.9,29.74,WNW,282,9.0,9.0,78,0.00,,,0.00,Wunderground v.1.15,2013-03-02 03:35:00,
2013-03-01 22:50:00,33.9,27.8,29.74,NW,310,7.0,7.0,78,0.00,,,0.00,Wunderground v.1.15,2013-03-02 03:50:00,
2013-03-01 22:55:00,33.9,27.8,29.74,NW,316,6.0,12.0,78,0.00,,,0.00,Wunderground v.1.15,2013-03-02 03:55:00,
2013-03-01 23:00:00,33.9,27.8,29.74,West,278,6.0,10.0,78,0.00,,,0.00,Wunderground v.1.15,2013-03-02 04:00:00,
2013-03-01 23:10:00,33.9,27.8,29.74,NW,315,6.0,6.0,78,0.00,,,0.00,Wunderground v.1.15,2013-03-02 04:10:00,
2013-03-01 23:15:00,33.9,27.4,29.74,WNW,295,6.0,6.0,77,0.00,,,0.00,Wunderground v.1.15,2013-03-02 04:15:00,
2013-03-01 23:25:00,33.8,27.4,29.73,West,276,5.0,6.0,77,0.00,,,0.00,Wunderground v.1.15,2013-03-02 04:25:00,
2013-03-01 23:35:00,33.8,27.4,29.73,WNW,303,6.0,6.0,77,0.00,,,0.00,Wunderground v.1.15,2013-03-02 04:35:00,
2013-03-01 23:40:00,33.8,27.4,29.73,West,260,6.0,6.0,77,0.00,,,0.00,Wunderground v.1.15,2013-03-02 04:40:00,
2013-03-01 23:45:00,33.8,27.4,29.73,WNW,303,5.0,6.0,77,0.00,,,0.00,Wunderground v.1.15,2013-03-02 04:45:00,
2013-03-01 23:55:00,33.7,27.6,29.72,West,272,5.0,6.0,78,0.00,,,0.00,Wunderground v.1.15,2013-03-02 04:55:00,